Trenton, NJ

4:08 PM EST on December 09, 2019 (GMT -0500)
Trenton Mercer

Weather History for KTTN - November, 2019

Change the Weather History Date:

Wednesday, November 13, 2019

  Actual Average Record
Temperature  
Mean Temperature 28 °F 47 °F  
Max Temperature 35 °F 56 °F 73 °F (1912)
Min Temperature 21 °F 38 °F 23 °F (1920)
Degree Days  
Heating Degree Days 37 18  
Month to date heating degree days 306 216  
Since 1 July heating degree days 553 613  
Cooling Degree Days 0 0  
Month to date cooling degree days 0 0  
Year to date cooling degree days 1164 965  
Moisture  
Dew Point 8 °F    
Average Humidity 46    
Maximum Humidity 58    
Minimum Humidity 32    
Precipitation  
Precipitation 0.00 in 0.09 in 1.58 in (1937)
Month to date precipitation 0.28 1.36  
Year to date precipitation 44.18 40.79  
Sea Level Pressure  
Sea Level Pressure 30.34 in    
Wind  
Wind Speed 7 mph ()    
Max Wind Speed 17 mph    
Max Gust Speed 30 mph    
Visibility 10.0 miles    
Events      
T = Trace of Precipitation, MM = Missing Value Source: Averaged Metar Reports

Daily Weather History Graph

Daily Weather History Graph

Search for Another Location

Airport or City:

Astronomy

Nov. 13, 2019 Rise Set
Actual Time 6:42 AM EST 4:44 PM EST
Civil Twilight 6:13 AM EST 5:13 PM EST
Nautical Twilight 5:40 AM EST 5:45 PM EST
Astronomical Twilight 5:08 AM EST 6:17 PM EST
Moon 5:45 PM EST (11/13) 7:33 AM EST (11/13)
Length of Visible Light 10h 59m
Length of Day
10h 01m
Full, 99% of the Moon is Illuminated
Nov 13
Full
Nov 19
Last Quarter
Nov 26
New
Dec 4
First Quarter
Dec 12
Full

Hourly Weather History & Observations

Time (EST) Temp. Windchill Dew Point Humidity Pressure Visibility Wind Dir Wind Speed Gust Speed Precip Events Conditions
12:53 AM 23.0 °F 12.4 °F 3.9 °F 44% 30.20 in 10.0 mi NW 10.4 mph 18.4 mph N/A   Clear
1:53 AM 23.0 °F 12.4 °F 5.0 °F 46% 30.22 in 10.0 mi NW 10.4 mph - N/A   Clear
2:53 AM 21.9 °F 12.5 °F 5.0 °F 48% 30.23 in 10.0 mi WNW 8.1 mph - N/A   Clear
3:53 AM 21.9 °F 15.7 °F 5.0 °F 48% 30.25 in 10.0 mi WNW 4.6 mph - N/A   Clear
4:53 AM 21.0 °F 11.4 °F 6.1 °F 53% 30.26 in 10.0 mi WNW 8.1 mph - N/A   Clear
5:53 AM 21.0 °F 13.4 °F 6.1 °F 53% 30.28 in 10.0 mi West 5.8 mph - N/A   Clear
6:53 AM 21.0 °F 13.4 °F 7.0 °F 55% 30.31 in 10.0 mi West 5.8 mph - N/A   Clear
7:53 AM 23.0 °F 13.9 °F 9.0 °F 55% 30.33 in 10.0 mi WNW 8.1 mph - N/A   Clear
8:53 AM 25.0 °F 14.2 °F 10.0 °F 53% 30.34 in 10.0 mi NW 11.5 mph - N/A   Clear
9:53 AM 28.0 °F 17.0 °F 10.0 °F 47% 30.34 in 10.0 mi NNW 13.8 mph - N/A   Clear
10:53 AM 30.0 °F 19.1 °F 10.0 °F 43% 30.33 in 10.0 mi NW 15.0 mph 27.6 mph N/A   Clear
11:53 AM 30.9 °F 22.8 °F 9.0 °F 40% 30.35 in 10.0 mi WNW 9.2 mph 21.9 mph N/A   Clear
12:53 PM 33.1 °F 25.5 °F 9.0 °F 37% 30.33 in 10.0 mi WNW 9.2 mph 21.9 mph N/A   Clear
1:53 PM 34.0 °F 26.6 °F 9.0 °F 35% 30.33 in 10.0 mi NNW 9.2 mph 18.4 mph N/A   Clear
2:53 PM 34.0 °F 28.8 °F 8.1 °F 34% 30.34 in 10.0 mi Variable 5.8 mph - N/A   Clear
3:53 PM 33.1 °F 25.5 °F 6.1 °F 32% 30.35 in 10.0 mi NNW 9.2 mph - N/A   Clear
4:53 PM 30.0 °F 24.1 °F 7.0 °F 38% 30.37 in 10.0 mi North 5.8 mph - N/A   Clear
5:53 PM 28.9 °F 25.2 °F 7.0 °F 40% 30.40 in 10.0 mi NNW 3.5 mph - N/A   Clear
6:53 PM 28.0 °F - 8.1 °F 43% 30.41 in 10.0 mi Calm Calm - N/A   Clear
7:53 PM 26.1 °F 21.9 °F 10.0 °F 51% 30.41 in 10.0 mi NNW 3.5 mph - N/A   Clear
8:53 PM 26.1 °F 21.9 °F 9.0 °F 49% 30.41 in 10.0 mi NE 3.5 mph - N/A   Clear
9:53 PM 26.1 °F - 10.9 °F 53% 30.43 in 10.0 mi Calm Calm - N/A   Clear
10:53 PM 26.1 °F - 10.9 °F 53% 30.43 in 10.0 mi Calm Calm - N/A   Clear
11:53 PM 25.0 °F - 12.0 °F 58% 30.43 in 10.0 mi Calm Calm - N/A   Clear